| time (UTC) | temp F | wind direction | speed knots | gust knots | rain 1hr in | rain 24hr in | rain mn in | humidity % | barometer mb |
| 20260904175910 | 87 | 39 | 0.9 | 2.6 | 0.00 | 0.00 | 0.00 | 39 | 1016.8 |
| 20260904174911 | 87 | 23 | 1.7 | 2.6 | 0.00 | 0.00 | 0.00 | 38 | 1016.6 |
| 20260904174411 | 87 | 18 | 1.7 | 2.6 | 0.00 | 0.00 | 0.00 | 37 | 1016.6 |
| 20260904173910 | 87 | 42 | 1.7 | 2.6 | 0.00 | 0.00 | 0.00 | 38 | 1016.5 |
| 20260904173411 | 88 | 29 | 1.7 | 2.6 | 0.00 | 0.00 | 0.00 | 38 | 1016.5 |
| 20260904172911 | 88 | 332 | 1.7 | 2.6 | 0.00 | 0.00 | 0.00 | 37 | 1016.4 |
| 20260904172411 | 88 | 27 | 1.7 | 2.6 | 0.00 | 0.00 | 0.00 | 36 | 1016.4 |
| 20260904171410 | 89 | 338 | 1.7 | 2.6 | 0.00 | 0.00 | 0.00 | 34 | 1016.4 |
| 20260904170910 | 90 | 38 | 0.9 | 2.6 | 0.00 | 0.00 | 0.00 | 33 | 1016.4 |
| 20260904170410 | 90 | 25 | 1.7 | 2.6 | 0.00 | 0.00 | 0.00 | 32 | 1016.3 |
| 20260904165409 | 91 | 22 | 1.7 | 2.6 | 0.00 | 0.00 | 0.00 | 30 | 1016.2 |
| 20260904164410 | 91 | 23 | 0.9 | 2.6 | 0.00 | 0.00 | 0.00 | 30 | 1016.1 |
| 20260904163910 | 91 | 233 | 0.9 | 2.6 | 0.00 | 0.00 | 0.00 | 30 | 1016.1 |
| 20260904163410 | 91 | 47 | 1.7 | 2.6 | 0.00 | 0.00 | 0.00 | 30 | 1016.1 |
| 20260904162911 | 91 | 23 | 1.7 | 2.6 | 0.00 | 0.00 | 0.00 | 30 | 1016.1 |
| 20260904162410 | 92 | 28 | 1.7 | 2.6 | 0.00 | 0.00 | 0.00 | 29 | 1016.0 |
| 20260904161911 | 92 | 314 | 0.9 | 2.6 | 0.00 | 0.00 | 0.00 | 31 | 1016.0 |
| 20260904161410 | 92 | 29 | 1.7 | 2.6 | 0.00 | 0.00 | 0.00 | 30 | 1016.0 |
| 20260904160911 | 92 | 37 | 1.7 | 2.6 | 0.00 | 0.00 | 0.00 | 30 | 1015.9 |
| 20260904160410 | 92 | 60 | 0.9 | 2.6 | 0.00 | 0.00 | 0.00 | 30 | 1015.9 |
| 20260904155910 | 92 | 37 | 1.7 | 2.6 | 0.00 | 0.00 | 0.00 | 30 | 1015.9 |
| 20260904155410 | 92 | 45 | 1.7 | 2.6 | 0.00 | 0.00 | 0.00 | 29 | 1015.9 |
| 20260904154910 | 92 | 46 | 1.7 | 2.6 | 0.00 | 0.00 | 0.00 | 29 | 1015.8 |
| 20260904154410 | 92 | 357 | 1.7 | 2.6 | 0.00 | 0.00 | 0.00 | 28 | 1015.8 |
| 20260904153910 | 93 | 36 | 1.7 | 2.6 | 0.00 | 0.00 | 0.00 | 28 | 1015.9 |
| 20260904153410 | 93 | 8 | 1.7 | 2.6 | 0.00 | 0.00 | 0.00 | 28 | 1015.9 |
| 20260904152909 | 93 | 23 | 0.9 | 2.6 | 0.00 | 0.00 | 0.00 | 28 | 1015.9 |
| 20260904151910 | 93 | 226 | 0.9 | 4.3 | 0.00 | 0.00 | 0.00 | 28 | 1015.9 |
| 20260904151410 | 93 | 30 | 1.7 | 2.6 | 0.00 | 0.00 | 0.00 | 28 | 1015.9 |
| 20260904150910 | 93 | 96 | 0.9 | 2.6 | 0.00 | 0.00 | 0.00 | 28 | 1015.9 |
| 20260904150410 | 93 | 324 | 2.6 | 2.6 | 0.00 | 0.00 | 0.00 | 27 | 1015.9 |
| 20260904145910 | 93 | 278 | 0.9 | 2.6 | 0.00 | 0.00 | 0.00 | 28 | 1015.8 |
| 20260904144910 | 94 | 92 | 0.9 | 2.6 | 0.00 | 0.00 | 0.00 | 28 | 1015.8 |
| 20260904143411 | 94 | 327 | 1.7 | 2.6 | 0.00 | 0.00 | 0.00 | 29 | 1015.8 |
| 20260904142410 | 93 | 54 | 1.7 | 2.6 | 0.00 | 0.00 | 0.00 | 29 | 1015.7 |
| 20260904141910 | 93 | 3 | 1.7 | 2.6 | 0.00 | 0.00 | 0.00 | 30 | 1015.6 |
| 20260904141411 | 93 | 54 | 1.7 | 2.6 | 0.00 | 0.00 | 0.00 | 30 | 1015.7 |
| 20260904140411 | 93 | 21 | 2.6 | 4.3 | 0.00 | 0.00 | 0.00 | 30 | 1015.6 |
| 20260904135410 | 93 | 11 | 1.7 | 2.6 | 0.00 | 0.00 | 0.00 | 33 | 1015.7 |
| 20260904134909 | 93 | 50 | 1.7 | 2.6 | 0.00 | 0.00 | 0.00 | 33 | 1015.7 |
| 20260904134411 | 93 | 45 | 1.7 | 2.6 | 0.00 | 0.00 | 0.00 | 32 | 1015.8 |
| 20260904133912 | 93 | 76 | 0.9 | 2.6 | 0.00 | 0.00 | 0.00 | 32 | 1015.8 |
| 20260904133410 | 94 | 71 | 1.7 | 2.6 | 0.00 | 0.00 | 0.00 | 32 | 1015.9 |
| 20260904132911 | 93 | 255 | 0.9 | 2.6 | 0.00 | 0.00 | 0.00 | 32 | 1015.9 |
| 20260904131910 | 93 | 32 | 1.7 | 2.6 | 0.00 | 0.00 | 0.00 | 33 | 1015.9 |
| 20260904131410 | 93 | 58 | 1.7 | 4.3 | 0.00 | 0.00 | 0.00 | 32 | 1016.0 |
| 20260904130911 | 93 | 356 | 1.7 | 4.3 | 0.00 | 0.00 | 0.00 | 32 | 1016.0 |
| 20260904130411 | 93 | 357 | 0.9 | 2.6 | 0.00 | 0.00 | 0.00 | 33 | 1016.0 |
| 20260904125910 | 92 | 66 | 2.6 | 2.6 | 0.00 | 0.00 | 0.00 | 33 | 1015.9 |
| 20260904125411 | 93 | 73 | 1.7 | 2.6 | 0.00 | 0.00 | 0.00 | 33 | 1016.0 |
| 20260904124910 | 92 | 321 | 1.7 | 2.6 | 0.00 | 0.00 | 0.00 | 35 | 1016.0 |
| 20260904124411 | 92 | 204 | 1.7 | 4.3 | 0.00 | 0.00 | 0.00 | 34 | 1016.1 |
| 20260904123911 | 92 | 60 | 1.7 | 4.3 | 0.00 | 0.00 | 0.00 | 35 | 1016.1 |
| 20260904123410 | 92 | 32 | 1.7 | 2.6 | 0.00 | 0.00 | 0.00 | 35 | 1016.1 |
| 20260904122910 | 92 | 45 | 2.6 | 4.3 | 0.00 | 0.00 | 0.00 | 35 | 1016.2 |
| 20260904122410 | 92 | 56 | 2.6 | 4.3 | 0.00 | 0.00 | 0.00 | 34 | 1016.1 |
| 20260904121410 | 92 | 39 | 2.6 | 4.3 | 0.00 | 0.00 | 0.00 | 34 | 1016.2 |
| 20260904120910 | 92 | 66 | 2.6 | 2.6 | 0.00 | 0.00 | 0.00 | 33 | 1016.2 |
| 20260904120410 | 92 | 37 | 2.6 | 2.6 | 0.00 | 0.00 | 0.00 | 33 | 1016.2 |
| 20260904115410 | 93 | 71 | 1.7 | 2.6 | 0.00 | 0.00 | 0.00 | 32 | 1016.4 |
| 20260904114411 | 93 | 46 | 1.7 | 4.3 | 0.00 | 0.00 | 0.00 | 33 | 1016.4 |
| 20260904113911 | 93 | 15 | 2.6 | 4.3 | 0.00 | 0.00 | 0.00 | 33 | 1016.4 |
| 20260904113411 | 93 | 63 | 2.6 | 2.6 | 0.00 | 0.00 | 0.00 | 33 | 1016.5 |
| 20260904112910 | 93 | 40 | 1.7 | 2.6 | 0.00 | 0.00 | 0.00 | 32 | 1016.5 |
| 20260904112411 | 93 | 43 | 2.6 | 4.3 | 0.00 | 0.00 | 0.00 | 32 | 1016.5 |
| 20260904111910 | 93 | 32 | 1.7 | 2.6 | 0.00 | 0.00 | 0.00 | 32 | 1016.5 |
| 20260904111410 | 92 | 75 | 1.7 | 2.6 | 0.00 | 0.00 | 0.00 | 31 | 1016.5 |
| 20260904110910 | 93 | 40 | 2.6 | 2.6 | 0.00 | 0.00 | 0.00 | 31 | 1016.5 |
| 20260904110410 | 93 | 22 | 1.7 | 2.6 | 0.00 | 0.00 | 0.00 | 31 | 1016.5 |
| 20260904105910 | 93 | 1 | 1.7 | 2.6 | 0.00 | 0.00 | 0.00 | 32 | 1016.5 |
| 20260904105411 | 92 | 50 | 1.7 | 2.6 | 0.00 | 0.00 | 0.00 | 32 | 1016.5 |
| 20260904104911 | 93 | 61 | 2.6 | 2.6 | 0.00 | 0.00 | 0.00 | 32 | 1016.5 |
| 20260904104411 | 92 | 28 | 1.7 | 2.6 | 0.00 | 0.00 | 0.00 | 32 | 1016.5 |
| 20260904103910 | 92 | 61 | 1.7 | 2.6 | 0.00 | 0.00 | 0.00 | 33 | 1016.5 |
| 20260904103408 | 92 | 38 | 1.7 | 2.6 | 0.00 | 0.00 | 0.00 | 33 | 1016.6 |
| 20260904102910 | 93 | 32 | 1.7 | 2.6 | 0.00 | 0.00 | 0.00 | 33 | 1016.6 |
| 20260904101911 | 92 | 28 | 1.7 | 2.6 | 0.00 | 0.00 | 0.00 | 34 | 1016.7 |
| 20260904101409 | 92 | 30 | 1.7 | 2.6 | 0.00 | 0.00 | 0.00 | 34 | 1016.7 |
| 20260904100910 | 92 | 355 | 0.9 | 2.6 | 0.00 | 0.00 | 0.00 | 35 | 1016.7 |
| 20260904100411 | 92 | 16 | 1.7 | 2.6 | 0.00 | 0.00 | 0.00 | 35 | 1016.7 |
| 20260904095410 | 91 | 336 | 0.9 | 2.6 | 0.00 | 0.00 | 0.00 | 36 | 1016.8 |
| 20260904094910 | 91 | 58 | 1.7 | 2.6 | 0.00 | 0.00 | 0.00 | 36 | 1016.7 |
| 20260904094410 | 91 | 62 | 1.7 | 2.6 | 0.00 | 0.00 | 0.00 | 37 | 1016.8 |
| 20260904093910 | 91 | 35 | 1.7 | 2.6 | 0.00 | 0.00 | 0.00 | 37 | 1016.7 |
| 20260904093410 | 90 | 30 | 1.7 | 2.6 | 0.00 | 0.00 | 0.00 | 38 | 1016.7 |
| 20260904092910 | 91 | 43 | 1.7 | 2.6 | 0.00 | 0.00 | 0.00 | 40 | 1016.8 |
| 20260904092410 | 91 | 35 | 1.7 | 2.6 | 0.00 | 0.00 | 0.00 | 40 | 1016.8 |
| 20260904091910 | 91 | 338 | 1.7 | 2.6 | 0.00 | 0.00 | 0.00 | 41 | 1016.8 |
| 20260904091410 | 90 | 197 | 0.9 | 2.6 | 0.00 | 0.00 | 0.00 | 42 | 1016.9 |
| 20260904090911 | 90 | 185 | 2.6 | 4.3 | 0.00 | 0.00 | 0.00 | 44 | 1016.8 |
| 20260904090409 | 90 | 35 | 1.7 | 2.6 | 0.00 | 0.00 | 0.00 | 43 | 1016.8 |
| 20260904085910 | 90 | 117 | 1.7 | 2.6 | 0.00 | 0.00 | 0.00 | 44 | 1016.8 |
| 20260904085410 | 89 | 262 | 1.7 | 2.6 | 0.00 | 0.00 | 0.00 | 46 | 1016.8 |
| 20260904084911 | 89 | 13 | 1.7 | 2.6 | 0.00 | 0.00 | 0.00 | 47 | 1016.8 |
| 20260904084410 | 89 | 17 | 0.9 | 2.6 | 0.00 | 0.00 | 0.00 | 48 | 1016.8 |
| 20260904083911 | 89 | 311 | 1.7 | 2.6 | 0.00 | 0.00 | 0.00 | 49 | 1016.9 |
| 20260904083410 | 89 | 327 | 0.9 | 2.6 | 0.00 | 0.00 | 0.00 | 49 | 1016.8 |
| 20260904082909 | 89 | 32 | 1.7 | 2.6 | 0.00 | 0.00 | 0.00 | 51 | 1016.8 |
| 20260904082411 | 89 | 0 | 1.7 | 2.6 | 0.00 | 0.00 | 0.00 | 50 | 1016.8 |
| 20260904081411 | 88 | 46 | 0.9 | 2.6 | 0.00 | 0.00 | 0.00 | 52 | 1016.8 |
| 20260904080410 | 88 | 253 | 1.7 | 2.6 | 0.00 | 0.00 | 0.00 | 53 | 1016.6 |
| 20260904075910 | 87 | 185 | 0.9 | 2.6 | 0.00 | 0.00 | 0.00 | 54 | 1016.6 |
| 20260904075410 | 87 | 49 | 0.9 | 2.6 | 0.00 | 0.00 | 0.00 | 55 | 1016.5 |
| 20260904074910 | 86 | 0 | 1.7 | 2.6 | 0.00 | 0.00 | 0.00 | 56 | 1016.4 |
| 20260904074410 | 86 | 319 | 0.9 | 4.3 | 0.00 | 0.00 | 0.00 | 58 | 1016.4 |
| 20260904073410 | 86 | 293 | 1.7 | 2.6 | 0.00 | 0.00 | 0.00 | 58 | 1016.2 |
| 20260904072911 | 85 | 242 | 0.9 | 2.6 | 0.00 | 0.00 | 0.00 | 59 | 1016.3 |
| 20260904071910 | 85 | 330 | 2.6 | 4.3 | 0.00 | 0.00 | 0.00 | 60 | 1016.1 |
| 20260904071409 | 85 | 298 | 1.7 | 2.6 | 0.00 | 0.00 | 0.00 | 60 | 1016.1 |
| 20260904070911 | 84 | 307 | 1.7 | 2.6 | 0.00 | 0.00 | 0.00 | 61 | 1016.1 |
| 20260904070410 | 84 | 283 | 1.7 | 2.6 | 0.00 | 0.00 | 0.00 | 61 | 1016.1 |
| 20260904065410 | 84 | 180 | 1.7 | 2.6 | 0.00 | 0.00 | 0.00 | 60 | 1016.0 |
| 20260904064909 | 84 | 22 | 0.9 | 2.6 | 0.00 | 0.00 | 0.00 | 61 | 1015.9 |
| 20260904064409 | 84 | 288 | 1.7 | 2.6 | 0.00 | 0.00 | 0.00 | 62 | 1015.9 |
| 20260904063911 | 83 | 353 | 0.0 | 2.6 | 0.00 | 0.00 | 0.00 | 63 | 1015.9 |
| 20260904062910 | 83 | 307 | 1.7 | 2.6 | 0.00 | 0.00 | 0.00 | 63 | 1016.0 |
| 20260904062410 | 82 | 323 | 1.7 | 2.6 | 0.00 | 0.00 | 0.00 | 63 | 1015.9 |
| 20260904061910 | 82 | 291 | 1.7 | 2.6 | 0.00 | 0.00 | 0.00 | 63 | 1016.0 |
| 20260904061410 | 82 | 313 | 0.9 | 2.6 | 0.00 | 0.00 | 0.00 | 64 | 1016.0 |
| 20260904060410 | 80 | 262 | 0.9 | 2.6 | 0.00 | 0.00 | 0.00 | 67 | 1015.9 |
| 20260904055909 | 80 | 261 | 1.7 | 2.6 | 0.00 | 0.00 | 0.00 | 67 | 1016.0 |
| 20260904055410 | 80 | 282 | 1.7 | 2.6 | 0.00 | 0.00 | 0.00 | 67 | 1015.9 |
| 20260904054909 | 80 | 260 | 1.7 | 2.6 | 0.00 | 0.00 | 0.00 | 67 | 1015.9 |
| 20260904054409 | 79 | 252 | 1.7 | 2.6 | 0.00 | 0.00 | 0.00 | 67 | 1015.8 |
| 20260904053909 | 79 | 253 | 1.7 | 2.6 | 0.00 | 0.00 | 0.00 | 67 | 1015.8 |
| 20260904053410 | 80 | 235 | 1.7 | 2.6 | 0.00 | 0.00 | 0.00 | 66 | 1015.8 |
| 20260904052910 | 80 | 264 | 1.7 | 2.6 | 0.00 | 0.00 | 0.00 | 65 | 1015.8 |
| 20260904052409 | 81 | 253 | 1.7 | 2.6 | 0.00 | 0.00 | 0.00 | 63 | 1015.7 |
| 20260904051910 | 80 | 268 | 1.7 | 2.6 | 0.00 | 0.00 | 0.00 | 62 | 1015.7 |
| 20260904051410 | 80 | 266 | 1.7 | 2.6 | 0.00 | 0.00 | 0.00 | 62 | 1015.6 |
| 20260904050909 | 80 | 267 | 1.7 | 2.6 | 0.00 | 0.00 | 0.00 | 62 | 1015.6 |
| 20260904050409 | 80 | 262 | 1.7 | 2.6 | 0.00 | 0.00 | 0.00 | 62 | 1015.5 |
| 20260904045908 | 80 | 244 | 1.7 | 2.6 | 0.00 | 0.00 | 0.00 | 63 | 1015.5 |
| 20260904045410 | 80 | 243 | 1.7 | 2.6 | 0.00 | 0.00 | 0.00 | 62 | 1015.5 |
| 20260904044910 | 80 | 278 | 1.7 | 2.6 | 0.00 | 0.00 | 0.00 | 62 | 1015.4 |
| 20260904044411 | 80 | 307 | 1.7 | 2.6 | 0.00 | 0.00 | 0.00 | 62 | 1015.3 |
| 20260904043909 | 80 | 295 | 2.6 | 2.6 | 0.00 | 0.00 | 0.00 | 62 | 1015.2 |
| 20260904043410 | 80 | 290 | 2.6 | 2.6 | 0.00 | 0.00 | 0.00 | 62 | 1015.2 |
| 20260904042910 | 80 | 311 | 1.7 | 4.3 | 0.00 | 0.00 | 0.00 | 63 | 1015.2 |
| 20260904042411 | 80 | 279 | 0.9 | 2.6 | 0.00 | 0.00 | 0.00 | 63 | 1015.2 |
| 20260904041410 | 80 | 299 | 1.7 | 2.6 | 0.00 | 0.00 | 0.00 | 63 | 1015.2 |
| 20260904040910 | 80 | 298 | 2.6 | 2.6 | 0.00 | 0.00 | 0.00 | 63 | 1015.1 |
| 20260904040411 | 80 | 271 | 2.6 | 2.6 | 0.00 | 0.00 | 0.00 | 63 | 1015.1 |
| 20260904035910 | 80 | 276 | 1.7 | 2.6 | 0.00 | 0.00 | 0.00 | 62 | 1015.0 |
| 20260904035410 | 80 | 238 | 0.9 | 2.6 | 0.00 | 0.00 | 0.00 | 60 | 1015.0 |
| 20260904034409 | 81 | 265 | 1.7 | 2.6 | 0.00 | 0.00 | 0.00 | 59 | 1015.0 |
| 20260904033909 | 81 | 245 | 1.7 | 2.6 | 0.00 | 0.00 | 0.00 | 59 | 1015.0 |
| 20260904033410 | 81 | 252 | 1.7 | 2.6 | 0.00 | 0.00 | 0.00 | 57 | 1015.1 |
| 20260904032910 | 81 | 310 | 1.7 | 2.6 | 0.00 | 0.00 | 0.00 | 57 | 1015.1 |
| 20260904031910 | 81 | 299 | 1.7 | 2.6 | 0.00 | 0.00 | 0.00 | 56 | 1015.0 |
| 20260904031410 | 81 | 293 | 1.7 | 2.6 | 0.00 | 0.00 | 0.00 | 56 | 1015.1 |
| 20260904030409 | 81 | 294 | 1.7 | 2.6 | 0.00 | 0.00 | 0.00 | 56 | 1015.1 |
| 20260904025909 | 81 | 292 | 1.7 | 2.6 | 0.00 | 0.00 | 0.00 | 56 | 1015.2 |
| 20260904025409 | 81 | 282 | 1.7 | 2.6 | 0.00 | 0.00 | 0.00 | 56 | 1015.2 |
| 20260904024409 | 81 | 289 | 1.7 | 2.6 | 0.00 | 0.00 | 0.00 | 56 | 1015.3 |
| 20260904023909 | 81 | 249 | 1.7 | 2.6 | 0.00 | 0.00 | 0.00 | 56 | 1015.2 |
| 20260904022909 | 81 | 279 | 2.6 | 2.6 | 0.00 | 0.00 | 0.00 | 56 | 1015.2 |
| 20260904022410 | 81 | 269 | 1.7 | 2.6 | 0.00 | 0.00 | 0.00 | 56 | 1015.2 |
| 20260904021915 | 80 | 279 | 1.7 | 2.6 | 0.00 | 0.00 | 0.00 | 56 | 1015.2 |
| 20260904021412 | 80 | 268 | 1.7 | 2.6 | 0.00 | 0.00 | 0.00 | 56 | 1015.2 |
| 20260904020409 | 80 | 267 | 2.6 | 2.6 | 0.00 | 0.00 | 0.00 | 56 | 1015.2 |
| 20260904015909 | 81 | 263 | 1.7 | 2.6 | 0.00 | 0.00 | 0.00 | 58 | 1015.3 |
| 20260904014908 | 80 | 292 | 1.7 | 2.6 | 0.00 | 0.00 | 0.00 | 57 | 1015.3 |
| 20260904013410 | 81 | 243 | 1.7 | 2.6 | 0.00 | 0.00 | 0.00 | 58 | 1015.1 |
| 20260904012909 | 80 | 263 | 2.6 | 2.6 | 0.00 | 0.00 | 0.00 | 58 | 1015.1 |
| 20260904011909 | 80 | 266 | 2.6 | 2.6 | 0.00 | 0.00 | 0.00 | 59 | 1015.1 |
| 20260904011410 | 80 | 263 | 1.7 | 2.6 | 0.00 | 0.00 | 0.00 | 59 | 1015.0 |
| 20260904010909 | 80 | 275 | 1.7 | 2.6 | 0.00 | 0.00 | 0.00 | 60 | 1015.1 |
| 20260904010409 | 80 | 261 | 2.6 | 2.6 | 0.00 | 0.00 | 0.00 | 59 | 1015.0 |
| 20260904005910 | 80 | 256 | 2.6 | 2.6 | 0.00 | 0.00 | 0.00 | 60 | 1015.0 |
| 20260904005410 | 81 | 263 | 1.7 | 2.6 | 0.00 | 0.00 | 0.00 | 61 | 1015.0 |
| 20260904004910 | 81 | 236 | 2.6 | 2.6 | 0.00 | 0.00 | 0.00 | 59 | 1015.0 |
| 20260904003909 | 81 | 275 | 1.7 | 2.6 | 0.00 | 0.00 | 0.00 | 59 | 1015.0 |
| 20260904003410 | 80 | 259 | 1.7 | 2.6 | 0.00 | 0.00 | 0.00 | 60 | 1015.0 |
| 20260904002410 | 80 | 249 | 1.7 | 2.6 | 0.00 | 0.00 | 0.00 | 61 | 1015.1 |
| 20260904001910 | 80 | 222 | 1.7 | 2.6 | 0.00 | 0.00 | 0.00 | 61 | 1015.1 |
| 20260904001409 | 80 | 257 | 1.7 | 2.6 | 0.00 | 0.00 | 0.00 | 62 | 1015.1 |
| 20260904000909 | 80 | 233 | 1.7 | 2.6 | 0.00 | 0.00 | 0.00 | 62 | 1015.1 |
| 20260904000410 | 80 | 240 | 1.7 | 2.6 | 0.00 | 0.00 | 0.00 | 62 | 1015.0 |
| 20260903235908 | 80 | 239 | 1.7 | 2.6 | 0.00 | 0.00 | 0.00 | 62 | 1015.0 |
| 20260903235409 | 80 | 249 | 1.7 | 1.7 | 0.00 | 0.00 | 0.00 | 61 | 1015.0 |
| 20260903234909 | 80 | 235 | 1.7 | 2.6 | 0.00 | 0.00 | 0.00 | 62 | 1015.0 |
| 20260903234410 | 80 | 254 | 1.7 | 2.6 | 0.00 | 0.00 | 0.00 | 63 | 1015.0 |
| 20260903233909 | 80 | 267 | 1.7 | 2.6 | 0.00 | 0.00 | 0.00 | 63 | 1015.0 |
| 20260903233410 | 80 | 264 | 2.6 | 2.6 | 0.00 | 0.00 | 0.00 | 63 | 1015.0 |
| 20260903232909 | 81 | 237 | 1.7 | 2.6 | 0.00 | 0.00 | 0.00 | 62 | 1015.0 |
| 20260903232409 | 81 | 256 | 1.7 | 2.6 | 0.00 | 0.00 | 0.00 | 59 | 1015.0 |
| 20260903231910 | 82 | 267 | 1.7 | 2.6 | 0.00 | 0.00 | 0.00 | 59 | 1015.0 |
| 20260903231409 | 82 | 275 | 1.7 | 2.6 | 0.00 | 0.00 | 0.00 | 57 | 1015.0 |
| 20260903230408 | 82 | 277 | 1.7 | 2.6 | 0.00 | 0.00 | 0.00 | 56 | 1015.0 |
| 20260903225909 | 82 | 283 | 1.7 | 2.6 | 0.00 | 0.00 | 0.00 | 56 | 1015.1 |
| 20260903224910 | 82 | 286 | 1.7 | 2.6 | 0.00 | 0.00 | 0.00 | 56 | 1015.0 |
| 20260903224409 | 82 | 313 | 1.7 | 2.6 | 0.00 | 0.00 | 0.00 | 56 | 1015.0 |
| 20260903223409 | 82 | 273 | 2.6 | 2.6 | 0.00 | 0.00 | 0.00 | 56 | 1015.1 |
| 20260903222409 | 82 | 293 | 2.6 | 4.3 | 0.00 | 0.00 | 0.00 | 56 | 1015.1 |
| 20260903221910 | 82 | 299 | 1.7 | 4.3 | 0.00 | 0.00 | 0.00 | 57 | 1015.1 |
| 20260903221409 | 82 | 311 | 1.7 | 4.3 | 0.00 | 0.00 | 0.00 | 58 | 1015.1 |
| 20260903220409 | 82 | 270 | 1.7 | 2.6 | 0.00 | 0.00 | 0.00 | 58 | 1015.2 |
| 20260903215910 | 82 | 288 | 1.7 | 2.6 | 0.00 | 0.00 | 0.00 | 58 | 1015.2 |
| 20260903215410 | 82 | 304 | 2.6 | 5.2 | 0.00 | 0.00 | 0.00 | 58 | 1015.2 |
| 20260903214909 | 82 | 315 | 1.7 | 2.6 | 0.00 | 0.00 | 0.00 | 59 | 1015.1 |
| 20260903214409 | 82 | 297 | 1.7 | 2.6 | 0.00 | 0.00 | 0.00 | 60 | 1015.0 |
| 20260903213908 | 82 | 300 | 2.6 | 2.6 | 0.00 | 0.00 | 0.00 | 60 | 1015.1 |
| 20260903213408 | 82 | 281 | 0.9 | 2.6 | 0.00 | 0.00 | 0.00 | 61 | 1015.1 |
| 20260903212909 | 82 | 291 | 1.7 | 2.6 | 0.00 | 0.00 | 0.00 | 61 | 1015.1 |
| 20260903212409 | 82 | 278 | 1.7 | 2.6 | 0.00 | 0.00 | 0.00 | 62 | 1015.1 |
| 20260903211408 | 82 | 266 | 0.9 | 2.6 | 0.00 | 0.00 | 0.00 | 60 | 1015.1 |
| 20260903210910 | 82 | 287 | 1.7 | 2.6 | 0.00 | 0.00 | 0.00 | 60 | 1015.1 |
| 20260903205410 | 82 | 301 | 1.7 | 2.6 | 0.00 | 0.00 | 0.00 | 63 | 1015.2 |
| 20260903204909 | 82 | 289 | 1.7 | 2.6 | 0.00 | 0.00 | 0.00 | 63 | 1015.2 |
| 20260903203909 | 82 | 282 | 2.6 | 2.6 | 0.00 | 0.00 | 0.00 | 62 | 1015.2 |
| 20260903203410 | 82 | 251 | 1.7 | 5.2 | 0.00 | 0.00 | 0.00 | 61 | 1015.1 |
| 20260903202910 | 82 | 297 | 1.7 | 2.6 | 0.00 | 0.00 | 0.00 | 60 | 1015.1 |
| 20260903202409 | 82 | 286 | 0.9 | 2.6 | 0.00 | 0.00 | 0.00 | 60 | 1015.1 |
| 20260903201908 | 82 | 329 | 0.9 | 2.6 | 0.00 | 0.00 | 0.00 | 59 | 1015.1 |
| 20260903201410 | 82 | 301 | 0.9 | 2.6 | 0.00 | 0.00 | 0.00 | 59 | 1015.1 |
| 20260903200909 | 82 | 343 | 1.7 | 2.6 | 0.00 | 0.00 | 0.00 | 59 | 1015.1 |
| 20260903200409 | 82 | 286 | 1.7 | 2.6 | 0.00 | 0.00 | 0.00 | 59 | 1015.1 |
| 20260903195409 | 82 | 310 | 1.7 | 2.6 | 0.00 | 0.00 | 0.00 | 57 | 1015.0 |
| 20260903194909 | 83 | 311 | 1.7 | 2.6 | 0.00 | 0.00 | 0.00 | 57 | 1015.0 |
| 20260903194409 | 83 | 327 | 0.9 | 2.6 | 0.00 | 0.00 | 0.00 | 56 | 1015.0 |
| 20260903193909 | 83 | 323 | 1.7 | 2.6 | 0.00 | 0.00 | 0.00 | 55 | 1015.0 |
| 20260903193409 | 83 | 138 | 1.7 | 2.6 | 0.00 | 0.00 | 0.00 | 55 | 1015.0 |
| 20260903192408 | 83 | 39 | 1.7 | 2.6 | 0.00 | 0.00 | 0.00 | 53 | 1014.9 |
| 20260903191909 | 83 | 0 | 1.7 | 2.6 | 0.00 | 0.00 | 0.00 | 53 | 1014.9 |
| 20260903191410 | 84 | 340 | 1.7 | 2.6 | 0.00 | 0.00 | 0.00 | 52 | 1014.8 |
| 20260903190909 | 84 | 272 | 1.7 | 2.6 | 0.00 | 0.00 | 0.00 | 52 | 1014.7 |
| 20260903190409 | 84 | 351 | 1.7 | 2.6 | 0.00 | 0.00 | 0.00 | 51 | 1014.7 |
| 20260903185409 | 84 | 334 | 1.7 | 2.6 | 0.00 | 0.00 | 0.00 | 51 | 1014.6 |
| 20260903183910 | 85 | 339 | 0.9 | 2.6 | 0.00 | 0.00 | 0.00 | 50 | 1014.6 |
| 20260903183409 | 85 | 297 | 1.7 | 2.6 | 0.00 | 0.00 | 0.00 | 49 | 1014.5 |
| 20260903182909 | 85 | 346 | 1.7 | 2.6 | 0.00 | 0.00 | 0.00 | 49 | 1014.5 |
| 20260903182410 | 85 | 312 | 0.9 | 2.6 | 0.00 | 0.00 | 0.00 | 49 | 1014.4 |
| 20260903181909 | 85 | 71 | 1.7 | 2.6 | 0.00 | 0.00 | 0.00 | 49 | 1014.3 |
| 20260903181410 | 85 | 306 | 1.7 | 2.6 | 0.00 | 0.00 | 0.00 | 49 | 1014.2 |
| 20260903180410 | 86 | 102 | 1.7 | 2.6 | 0.00 | 0.00 | 0.00 | 47 | 1014.2 |